Location: Ch�risy
(50.2331°N, 2.9131°E)
Time: 19:59:38
(UTC+00:00)

AQUARIUS - Pass Details

Date: 17 January 2021
Orbit: 650 x 652 km, 98.0° (Epoch: 27 February)

Event Time Altitude Azimuth Distance (km) Brightness Sun altitude
Rises 16:58:57 0° 160° (SSE) 2,962 7.6 -6.7°
Reaches altitude 10° 17:01:09 10° 158° (SSE) 2,056 6.8 -7.0°
Maximum altitude 17:05:38 77° 73° (ENE) 677 4.1 -7.7°
Drops below altitude 10° 17:10:09 10° 349° (NNW) 2,072 6.6 -8.3°
Sets 17:12:23 0° 348° (NNW) 2,988 7.5 -8.7°
